Total_Precipitation_Accumulation
2.65 2.72 2.54 2.55 2.65 2.68 2.84 3.10 3.16 2.93 2.80 2.61 2.19 1.94 2.00 2.19 2.45 2.21 2.10 1.99 1.84 1.74 1.65 1.61 1.62 1.67 1.73 1.85 2.04 2.22 2.33 2.40 2.46 2.43 2.48 2.61 2.71 2.85
2.44 2.50 2.45 2.43 2.57 2.53 2.57 2.79 3.00 3.06 2.86 2.60 2.35 2.03 2.08 1.99 2.21 2.16 2.15 2.08 1.85 1.67 1.51 1.42 1.42 1.49 1.58 1.63 1.68 1.79 1.83 1.85 1.91 1.97 2.00 2.01 2.04 2.14
2.08 2.15 2.18 2.33 2.48 2.45 2.50 2.56 2.82 3.11 3.00 2.80 2.59 2.40 2.29 2.22 2.07 2.03 1.95 1.85 1.67 1.55 1.36 1.27 1.27 1.31 1.36 1.42 1.51 1.61 1.67 1.72 1.73 1.75 1.79 1.84 1.87 1.91
2.07 2.21 2.11 2.26 2.42 2.36 2.47 2.49 2.66 2.98 3.10 3.22 3.20 2.90 2.62 2.44 2.38 2.20 1.82 1.66 1.67 1.61 1.45 1.31 1.24 1.23 1.22 1.24 1.33 1.46 1.56 1.62 1.63 1.64 1.65 1.67 1.76 1.84
2.15 2.18 2.06 2.18 2.25 2.25 2.32 2.38 2.56 2.77 3.01 3.00 3.06 2.96 2.81 2.54 2.63 2.37 2.07 1.99 1.63 1.58 1.52 1.35 1.27 1.23 1.19 1.21 1.26 1.30 1.37 1.46 1.49 1.59 1.68 1.69 1.71 1.74
2.09 2.00 1.88 1.87 1.96 2.11 2.11 2.24 2.46 2.66 2.83 2.78 2.84 2.94 3.01 3.00 3.01 2.77 2.58 2.34 1.99 1.61 1.62 1.44 1.36 1.26 1.15 1.10 1.12 1.19 1.29 1.40 1.44 1.50 1.59 1.66 1.70 1.74
1.93 1.75 1.55 1.58 1.66 1.73 1.69 2.02 2.33 2.46 2.54 2.61 2.70 2.89 3.03 3.24 3.06 2.92 2.81 2.74 2.44 2.05 1.99 1.65 1.51 1.31 1.15 1.11 1.12 1.13 1.19 1.34 1.42 1.50 1.57 1.62 1.70 1.77
1.80 1.77 1.60 1.47 1.40 1.42 1.40 1.56 1.89 2.05 2.23 2.50 2.64 2.84 2.94 2.97 3.15 3.13 3.08 2.92 2.65 2.35 2.34 2.26 2.09 1.93 1.64 1.33 1.24 1.11 1.05 1.17 1.35 1.46 1.57 1.65 1.71 1.75
1.71 1.73 1.48 1.34 1.39 1.26 1.33 1.41 1.44 1.53 1.69 2.06 2.34 2.45 2.50 2.58 2.89 3.00 2.99 2.88 2.80 2.65 2.69 2.67 2.52 2.27 1.86 1.65 1.54 1.28 1.16 1.12 1.20 1.31 1.37 1.48 1.59 1.67
1.43 1.44 1.45 1.44 1.36 1.41 1.39 1.39 1.30 1.31 1.38 1.42 1.58 1.80 2.09 2.34 2.53 2.75 3.01 2.97 2.91 2.83 2.81 2.88 2.71 2.56 2.20 1.90 1.74 1.49 1.39 1.31 1.31 1.35 1.37 1.36 1.40 1.49
1.46 1.46 1.53 1.59 1.58 1.44 1.38 1.40 1.41 1.44 1.40 1.42 1.37 1.44 1.59 1.72 1.89 2.16 2.50 2.83 3.05 3.03 2.84 2.93 2.87 2.90 2.83 2.44 2.00 1.75 1.49 1.38 1.35 1.34 1.34 1.33 1.33 1.39
1.75 1.74 1.63 1.50 1.48 1.36 1.36 1.45 1.42 1.41 1.36 1.33 1.29 1.25 1.25 1.39 1.54 1.71 1.99 2.36 2.66 2.82 2.75 2.88 3.05 3.38 3.53 3.03 2.43 1.99 1.75 1.64 1.49 1.36 1.33 1.34 1.38 1.29
1.70 1.63 1.49 1.32 1.19 1.16 1.16 1.27 1.34 1.28 1.27 1.32 1.37 1.36 1.37 1.42 1.47 1.55 1.81 2.03 2.18 2.14 2.13 2.52 2.77 3.05 3.39 3.30 3.03 2.65 2.33 2.07 1.83 1.63 1.56 1.56 1.57 1.48
1.75 1.68 1.52 1.34 1.18 1.12 0.99 1.05 1.12 1.07 1.13 1.30 1.36 1.38 1.40 1.40 1.47 1.59 1.76 1.95 2.12 2.11 2.11 2.31 2.52 2.73 2.83 2.81 2.82 2.85 2.79 2.61 2.35 2.10 1.88 1.91 1.87 1.89
1.60 1.74 1.61 1.34 1.14 1.06 1.03 0.96 0.87 0.87 1.02 1.13 1.20 1.28 1.32 1.39 1.50 1.67 1.88 2.05 2.10 2.06 1.99 2.12 2.36 2.58 2.69 2.60 2.49 2.46 2.51 2.48 2.42 2.38 2.34 2.22 2.08 2.02
1.45 1.47 1.42 1.28 1.11 1.12 1.14 1.01 0.89 0.95 1.01 1.02 1.09 1.20 1.27 1.35 1.48 1.58 1.75 1.96 2.08 1.98 1.95 2.04 2.22 2.44 2.46 2.42 2.35 2.23 2.25 2.33 2.38 2.48 2.52 2.45 2.33 2.24
1.41 1.43 1.40 1.39 1.26 1.20 1.25 1.24 1.20 1.23 1.18 1.13 1.15 1.18 1.23 1.29 1.35 1.48 1.63 1.74 1.83 1.82 1.81 1.87 1.99 2.16 2.17 2.18 2.17 2.04 2.00 1.99 2.14 2.42 2.63 2.61 2.39 2.25
1.29 1.39 1.51 1.50 1.45 1.43 1.42 1.40 1.40 1.36 1.35 1.37 1.35 1.29 1.27 1.29 1.28 1.34 1.48 1.55 1.56 1.61 1.69 1.70 1.79 1.96 2.03 1.94 1.73 1.68 1.69 1.71 1.75 1.97 2.22 2.41 2.31 2.16
1.24 1.37 1.53 1.56 1.56 1.57 1.51 1.47 1.51 1.45 1.44 1.45 1.41 1.38 1.40 1.41 1.39 1.39 1.49 1.58 1.56 1.52 1.54 1.67 1.71 1.80 1.82 1.72 1.51 1.30 1.46 1.61 1.65 1.66 1.71 1.84 1.90 1.80
1.30 1.47 1.65 1.66 1.66 1.65 1.56 1.49 1.50 1.46 1.44 1.44 1.43 1.40 1.41 1.47 1.49 1.46 1.46 1.52 1.53 1.49 1.49 1.51 1.57 1.59 1.63 1.64 1.55 1.36 1.19 1.38 1.51 1.51 1.48 1.51 1.49 1.52
1.45 1.56 1.59 1.60 1.63 1.59 1.50 1.46 1.49 1.46 1.43 1.46 1.45 1.44 1.44 1.52 1.53 1.50 1.45 1.49 1.44 1.37 1.36 1.39 1.41 1.45 1.53 1.67 1.60 1.40 1.25 1.20 1.30 1.36 1.42 1.53 1.49 1.43
1.40 1.41 1.40 1.40 1.43 1.44 1.45 1.47 1.53 1.51 1.50 1.49 1.43 1.41 1.42 1.46 1.48 1.48 1.46 1.43 1.40 1.36 1.31 1.31 1.34 1.39 1.49 1.58 1.55 1.44 1.36 1.33 1.33 1.36 1.36 1.39 1.39 1.34
1.34 1.34 1.33 1.29 1.26 1.32 1.36 1.38 1.43 1.45 1.41 1.37 1.35 1.35 1.33 1.38 1.37 1.34 1.33 1.29 1.29 1.31 1.34 1.35 1.36 1.39 1.42 1.50 1.58 1.56 1.43 1.42 1.45 1.41 1.22 1.14 1.07 0.99